Regional Weather Roundup
Issued by NWS Green Bay, WI

Home | Current Version | Previous Version | Graphics & Text | Print | Product List | Glossary Off
Versions: 1 2 3 4 5 6 7 8 9 10 11 12 13 14 15 16 17 18 19 20 21 22 23 24 25 26 27 28 29 30 31 32 33 34 35 36 37 38 39 40 41 42 43 44 45 46 47 48 49 50

202
ASUS43 KGRB 201211
RWRGRB

NORTH-CENTRAL AND NORTHEAST WISCONSIN REGIONAL WEATHER ROUNDUP
NATIONAL WEATHER SERVICE GREEN BAY WI
600 AM CST FRI JAN 20 2017

WIZ005-009-010>012-018-019-201300-
NORTH CENTRAL WISCONSIN

CITY           SKY/WX    TMP DP  RH WIND       PRES   REMARKS
IRONWOOD       CLOUDY    32  28  85 E5        29.68R
MANITOWISH WTR CLOUDY    28  28 100 SE3       29.67R FOG
ARBOR VITAE    CLOUDY    32  31  96 SE3       29.68R FOG
EAGLE RIVER    CLOUDY    29  29 100 CALM      29.67S
LAND O LAKES   CLOUDY    26  26  99 CALM      29.69S
RHINELANDER    CLOUDY    31  30  96 CALM      29.67S
PHILLIPS       MIX PCPN  32  31  98 CALM      29.67R
ANTIGO         MIX PCPN  31  31 100 CALM      29.69S
TOMAHAWK       DRIZZLE   31  31  98 CALM      29.69R
MERRILL        MIX PCPN  32  32 100 CALM        N/A
$$

WIZ013-073-201300-
NORTHEAST WISCONSIN

CITY           SKY/WX    TMP DP  RH WIND       PRES   REMARKS
IRON MOUNTAIN  FOG       30  27  88 CALM      29.70S VSB 1
MARINETTE      NOT AVBL
OCONTO         CLOUDY    32  32  99 CALM      29.73R VSB 1/4
$$

WIZ017-030-035>037-045-201300-
CENTRAL WISCONSIN

CITY           SKY/WX    TMP DP  RH WIND       PRES   REMARKS
MEDFORD        CLOUDY    32  32  99 E3        29.66S FOG
WAUSAU         FRZ RAIN  32  31  96 E5        29.67F FOG
MOSINEE        FRZ RAIN  32  32 100 E6        29.69S
MARSHFIELD     CLOUDY    33  31  92 E8        29.66S FOG
WISC RAPIDS    LGT RAIN  33  33 100 E5        29.69R FOG
STEVENS POINT  MIX PCPN  31  31 100 NE8       29.69S
WAUPACA        DRIZZLE   34  33  96 CALM      29.71R
SHAWANO        LGT RAIN  33  32  96 CALM      29.71F
CLINTONVILLE   MIX PCPN  32  32 100 NE3       29.70S
WAUTOMA        LGT RAIN  33  33 100 NE5       29.69S FOG
$$

WIZ038-039-048-051-201300-
FOX VALLEY

CITY           SKY/WX    TMP DP  RH WIND       PRES   REMARKS
NWS GREEN BAY  LGT RAIN  34  34 100 NE7       29.71S FOG
APPLETON       LGT RAIN  34  34 100 NE7       29.68F
OSHKOSH        LGT RAIN  33  32  96 NE8       29.68S FOG
FOND DU LAC    LGT RAIN  35  32  88 CALM      29.68R FOG
$$

WIZ022-050-052-201300-
EAST CENTRAL WISCONSIN

CITY           SKY/WX    TMP DP  RH WIND       PRES   REMARKS
EPHRAIM        FOG       32  32 100 N5        29.72R VSB 1/4
WASHINGTON ISL FOG       32  32 100 CALM      29.72S VSB 1/2
STURGEON BAY   LGT RAIN  33  32  96 N6        29.72S VSB 1/2
MANITOWOC      LGT RAIN  35  33  92 N3        29.71S FOG
SHEBOYGAN      LGT RAIN  34  33  96 NE6       29.69F VSB 1/2
$$

LMZ563-521-522-541>543-201300-
LAKESHORE

STATION/POSITION TIME  TEMP    WIND        PRES    VSBY  WAVE
                       AIR SEA DIR/SP/G                  HT/PER
                 (UTC) (F)     (DEG/KT/KT) (MB)    (MI)  (FT/S)
SHEBOYGAN LKSHOR 1200   35      20/  5/  6 1005.8F
KEWAUNEE LKSHORE 1142   34     290/  2/  3 1005.6F
NORTHPORT PIER   1140   32     300/  2/  6 1006.8S
SISTER BAY LKSHO 1120   32     360/  8/  9   N/A
$$




USA.gov is the U.S. government's official web portal to all federal, state and local government web resources and services.